Regional Weather Roundup
Issued by NWS

Home | Current Version | Previous Version | Graphics & Text | Print | Product List | Glossary On
Versions: 1 2 3 4 5 6 7 8 9 10 11 12 13 14 15 16 17 18 19 20 21 22 23 24 25 26 27 28 29 30 31 32 33 34 35 36 37 38 39 40 41 42 43 44 45 46 47 48 49 50
000
ASUS43 KIND 311459
RWRIN

WEATHER ROUNDUP FOR INDIANA
NATIONAL WEATHER SERVICE INDIANAPOLIS IN
1100 AM EDT MON AUG 31 2015

NOTE: "FAIR" INDICATES FEW OR NO CLOUDS BELOW 12,000 FEET WITH NO
SIGNIFICANT WEATHER AND/OR OBSTRUCTIONS TO VISIBILITY.

* - STATION DOES NOT REPORT WEATHER SUCH AS PRECIPITATION OR FOG.

+ - STATION NOT QUALITY CONTROLLED BY THE NATIONAL WEATHER SERVICE.
    USE DATA WITH CAUTION...ESPECIALLY DEWPOINT AND RELATIVE
    HUMIDITY OBSERVATIONS.

INZ001>003-010>013-019-020-311600-
NORTHWEST INDIANA

CITY           SKY/WX    TMP DP  RH WIND       PRES   REMARKS
GARY /AIRPORT/ SUNNY     75  66  73 CALM      30.10R HAZE
KNOX *+        PTSUNNY   70  70 100 CALM      30.10R
MONTICELLO +   MOSUNNY   76  74  91 SW5       30.10S

$$

LMZ046-743>745-311600-
SOUTHERN LAKE MICHIGAN

STATION/POSITION TIME  TEMP    WIND        PRES    WAVE
                       AIR SEA DIR/SP/G            HT
                 (UTC) (F)     (DEG/KT/KT) (MB)    (FT)
BURNS HARBOR     1400   70     240/  2/  2 1019.3R

$$

INZ004-005-014>016-021>024-311600-
NORTH CENTRAL INDIANA

CITY           SKY/WX    TMP DP  RH WIND       PRES   REMARKS
ELKHART        MOSUNNY   72  72 100 CALM      30.12R FOG
GOSHEN         SUNNY     75  70  84 CALM      30.11R HAZE
SOUTH BEND     FOG       71  69  93 S5        30.11R VSB 1
WARSAW +       SUNNY     73  70  88 W6        30.11S

$$

INZ006>009-017-018-025>027-311600-
NORTHEAST INDIANA

CITY           SKY/WX    TMP DP  RH WIND       PRES   REMARKS
ANGOLA *+      SUNNY     75  72  88 S3        30.11R
FORT WAYNE     SUNNY     78  70  76 W6        30.12R

$$

INZ028-029-035-036-043>045-051>053-311600-
WEST CENTRAL INDIANA

CITY           SKY/WX    TMP DP  RH WIND       PRES   REMARKS
CRAWFORDSVL +  CLOUDY    74  68  80 CALM      30.13R
GREENCASTLE +  MOSUNNY   75  64  69 CALM      30.13S
LAFAYETTE      SUNNY     78  70  76 VRB5      30.10S
TERRE HAUTE    MOSUNNY   77  68  73 S6        30.13R

$$

INZ030>032-037>040-046>048-054>057-064-065-311600-
CENTRAL INDIANA

CITY           SKY/WX    TMP DP  RH WIND       PRES   REMARKS
ANDERSON       SUNNY     77  64  65 CALM      30.15R
FRANKFORT +    SUNNY     80  73  78 SW6       30.14R
GREENWOOD *+   SUNNY     77  66  69 SW6       30.15R
INDIANAPOLIS   SUNNY     78  68  71 S6        30.12R
-EAGLE CREEK   SUNNY     78  69  73 SW6       30.12S
KOKOMO *+      SUNNY     81  72  74 NW8       30.12R
MT COMFORT *+  SUNNY     79  68  69 S3        30.14R
SHELBYVILLE    SUNNY     79  69  71 S6        30.13S

$$

INZ033-034-041-042-049-050-058-059-311600-
EAST CENTRAL INDIANA

CITY           SKY/WX    TMP DP  RH WIND       PRES   REMARKS
MUNCIE         SUNNY     75  69  81 VRB3      30.13R

$$

INZ060-061-067>069-081>083-085>088-311600-
SOUTHWEST INDIANA

CITY           SKY/WX    TMP DP  RH WIND       PRES   REMARKS
EVANSVILLE     SUNNY     78  68  71 SW9       30.14S
HUNTINGBURG *+ SUNNY     79  68  69 SW8       30.15R

$$

INZ062-063-066-070>080-084-089>092-311600-
SOUTH CENTRAL AND SOUTHEAST INDIANA

CITY           SKY/WX    TMP DP  RH WIND       PRES   REMARKS
BLOOMINGTON    MOSUNNY   76  68  76 SW5       30.15R
MADISON *+     MOSUNNY   79  68  69 S5        30.18R
SEYMOUR +      SUNNY     81  68  65 CALM      30.14S

$$




USA.gov is the U.S. government's official web portal to all federal, state and local government web resources and services.